EHI
0 0 0 0 0 0 0 0 0 0 0 0 0 0 0 0 0 0 0 0 0 0 0 0 0 0 0 0 0 0 0 0 0 0 0 1 0 0 0 0 0 0 0 0
0 0 0 0 0 0 0 0 0 0 0 0 0 0 0 0 0 0 0 0 0 0 0 0 0 0 0 0 0 0 0 0 0 0 0 1 1 1 0 0 0 0 0 0
0 0 0 0 0 0 0 0 0 0 0 0 0 0 0 0 0 0 0 0 0 0 0 0 0 0 0 0 0 0 0 0 0 0 0 1 2 1 0 0 0 0 0 0
0 0 0 0 0 0 0 0 0 0 0 0 0 0 0 0 0 0 0 0 0 0 0 0 0 0 0 0 0 0 0 0 0 0 0 1 1 1 0 0 0 0 0 0
0 0 0 0 0 0 0 0 0 0 0 0 0 0 0 0 0 0 0 0 0 0 0 0 0 0 0 0 0 0 0 0 0 0 0 0 0 0 0 0 0 0 0 0
0 0 0 0 0 0 0 0 0 0 0 0 0 0 0 0 0 0 0 0 0 0 0 0 0 0 0 0 0 0 0 0 0 0 0 0 0 0 0 0 0 0 0 0
0 0 0 0 0 0 0 0 0 0 0 0 0 0 0 0 0 0 0 0 0 0 0 0 0 0 0 0 0 0 0 0 0 0 0 0 0 0 0 0 0 0 0 0
0 0 0 0 0 0 0 0 0 0 0 0 0 0 0 0 0 0 0 0 0 0 0 0 0 0 0 0 0 0 0 0 0 0 0 0 0 0 0 0 0 0 0 1
0 0 0 0 0 0 0 0 0 0 0 0 0 0 0 0 0 0 0 0 0 0 0 0 0 0 0 0 0 0 0 0 0 0 0 0 0 0 0 0 1 1 2 2
0 0 0 0 0 0 0 0 0 0 0 0 0 0 0 0 0 0 0 0 0 0 0 0 0 0 0 0 0 0 0 0 0 0 0 0 0 0 0 0 1 2 3 3
0 0 0 0 0 0 0 0 0 0 0 0 0 0 0 0 0 0 0 0 0 0 0 0 0 0 0 0 0 0 0 0 0 0 0 0 0 0 0 0 1 2 3 3
0 0 0 0 0 0 0 0 0 0 0 0 0 0 0 0 0 0 0 0 0 0 0 0 0 0 0 0 0 0 0 0 0 0 0 0 0 0 0 0 1 2 2 2
0 0 0 0 0 0 0 0 0 0 0 0 0 0 0 0 0 0 0 0 0 0 0 0 0 0 0 0 0 0 0 0 0 0 0 0 0 0 0 0 0 1 1 1
0 0 0 0 0 0 0 0 0 0 0 0 0 0 0 0 0 0 0 0 0 0 0 0 0 0 0 0 0 0 0 0 0 0 0 0 0 0 0 0 0 0 0 0
0 0 0 0 0 0 0 0 0 0 0 0 0 0 0 0 0 0 0 0 0 0 0 0 0 0 0 0 0 0 0 0 0 0 0 0 0 0 0 0 0 0 0 0
0 0 0 0 0 0 0 0 0 0 0 0 0 0 0 0 0 0 0 0 0 0 0 0 0 0 0 0 0 0 0 0 0 0 0 0 0 0 0 0 0 0 0 0
0 0 0 0 0 0 0 0 0 0 0 0 0 0 0 0 0 0 0 0 0 0 0 0 0 0 0 0 0 0 0 0 0 0 0 0 0 0 0 0 0 0 0 0
0 0 0 0 0 0 0 0 0 0 0 0 0 0 0 0 0 0 0 0 0 0 0 0 0 0 0 0 0 0 0 0 0 0 0 0 0 0 0 0 0 0 0 0
0 0 0 0 0 0 0 0 0 0 0 0 0 0 0 0 0 0 0 0 0 0 0 0 0 0 0 0 0 0 0 0 0 0 0 0 0 0 0 0 0 0 0 0
0 0 0 0 0 0 0 0 0 0 0 0 0 0 0 0 0 0 0 0 0 0 0 0 0 0 0 0 0 0 0 0 0 0 0 0 0 0 0 0 0 0 0 0
0 0 0 0 0 0 0 0 0 0 0 0 0 0 0 0 0 0 0 0 0 0 0 0 0 0 0 0 0 0 0 0 0 0 0 0 0 0 0 0 0 0 0 0
0 0 0 0 0 0 0 0 0 0 0 0 0 0 0 0 0 0 0 0 0 0 0 0 0 0 0 0 0 0 0 0 0 0 0 0 0 0 0 0 0 0 0 0
0 0 0 0 0 0 0 0 0 0 0 0 0 0 0 0 0 0 0 0 0 0 0 0 0 0 0 0 0 0 0 0 0 0 0 0 0 0 0 0 0 0 0 0
0 0 0 0 0 0 0 0 0 0 0 0 0 0 0 0 0 0 0 0 0 0 0 0 0 0 0 0 0 0 0 0 0 0 0 0 0 0 0 0 0 0 0 0
0 0 0 0 0 0 0 0 0 0 0 0 0 0 0 0 0 0 0 0 0 0 0 0 0 0 0 0 0 0 0 0 0 0 0 0 0 0 0 0 0 0 0 0
0 0 0 0 0 0 0 0 0 0 0 0 0 0 0 0 0 0 0 0 0 0 0 0 0 0 0 0 0 0 0 0 0 0 0 0 0 0 0 0 0 0 0 0
Wind_Speed
4 5 9 12 11 6 5 6 6 6 4 6 9 10 9 7 6 7 8 8 8 8 6 5 5 5 5 5 6 7 7 7 6 5 4 4 4 3 2 2 3 4 4 4
3 9 10 6 7 6 6 5 4 3 3 4 6 10 8 8 8 10 11 10 10 7 4 5 5 5 6 6 7 7 8 7 7 6 5 4 4 3 3 2 2 3 4 4
9 6 8 8 7 9 9 8 6 4 1 1 1 7 7 6 6 6 8 9 8 10 9 7 6 6 6 7 7 7 8 8 7 6 4 4 3 2 1 1 2 2 3 4
7 6 6 9 10 9 9 8 7 5 3 4 4 5 7 6 6 7 8 7 8 7 7 7 7 7 7 7 6 6 7 7 7 7 7 7 5 4 4 3 3 2 3 3
7 6 8 11 10 9 6 4 5 5 5 3 3 4 8 4 7 9 8 8 8 8 8 8 8 8 6 6 5 5 6 6 6 6 8 7 5 4 3 3 3 2 2 3
5 4 6 7 6 7 4 3 2 2 2 6 8 6 8 6 10 8 8 7 8 7 7 7 6 5 4 4 5 5 6 5 6 6 7 7 8 6 5 4 4 2 2 2
3 4 3 3 5 4 5 5 3 1 3 8 5 6 10 7 7 9 10 9 8 7 7 6 6 6 5 5 5 5 6 6 6 6 6 7 8 8 8 6 5 4 3 2
4 4 5 4 6 7 8 8 7 7 6 4 4 8 9 6 5 5 6 6 6 6 6 7 7 7 7 7 6 6 6 5 5 6 6 6 6 5 5 5 5 5 4 3
3 4 3 4 4 8 7 7 5 3 1 2 5 6 7 1 0 1 3 4 6 6 6 6 6 6 6 6 6 7 6 5 4 5 6 5 5 5 5 5 4 3 3 3
2 2 2 2 3 1 5 6 4 5 5 5 4 5 5 3 3 2 3 4 5 5 4 4 4 4 4 5 4 4 5 5 4 5 5 5 5 5 4 4 4 4 3 3
0 2 1 2 5 6 4 5 4 5 4 5 4 6 4 6 5 4 4 4 5 5 5 4 3 3 4 3 4 4 4 4 3 3 4 5 4 4 4 4 4 4 3 4
1 1 2 3 2 3 4 6 6 5 5 4 3 6 4 2 2 3 2 2 3 3 3 4 4 4 3 3 3 3 3 4 3 3 4 4 4 4 4 4 3 3 3 3
0 1 2 0 1 0 2 3 4 3 2 3 4 5 3 3 3 2 2 2 2 3 3 3 3 4 3 3 3 3 3 3 3 3 4 4 4 4 4 4 3 3 3 3
1 1 3 5 3 3 3 4 4 5 4 4 6 5 4 2 2 1 1 2 2 2 3 3 3 3 3 3 3 3 3 3 3 4 4 4 3 4 4 4 3 3 3 3
2 1 1 2 2 2 2 5 6 7 7 6 5 5 6 3 2 1 1 3 3 2 2 3 2 2 2 2 2 3 3 2 3 4 4 3 3 3 4 4 3 3 3 2
2 0 1 2 2 1 2 4 7 8 8 7 4 5 3 1 2 2 2 2 2 2 2 2 2 3 2 2 2 2 2 2 3 4 4 3 4 4 3 3 3 3 3 2
0 1 0 2 3 2 4 5 6 5 6 7 9 6 0 1 1 1 1 2 2 2 2 2 1 2 2 2 2 3 2 3 3 3 3 3 4 4 3 3 3 3 3 2
3 2 1 1 1 3 4 1 1 3 3 2 2 1 3 2 1 1 1 2 2 2 2 1 1 1 1 2 2 3 3 3 3 3 3 3 3 3 3 3 3 2 2 2
4 3 2 1 2 4 4 3 2 2 2 2 1 1 1 1 2 3 3 2 2 1 1 1 1 2 2 2 2 3 3 3 3 2 2 2 3 3 3 3 2 2 2 1
2 3 3 2 2 3 4 6 5 2 2 3 1 1 0 2 2 2 2 2 2 2 2 2 2 3 3 2 2 4 3 3 2 2 2 2 2 3 3 3 2 1 2 1
2 1 3 2 2 4 5 7 2 2 4 4 2 1 1 1 2 2 1 3 3 3 3 3 3 3 2 2 3 4 3 2 1 1 2 2 2 2 3 2 2 2 1 1
3 3 3 3 3 5 4 3 1 2 3 3 2 1 2 2 3 2 3 3 4 4 3 3 3 3 2 2 3 3 2 1 1 2 2 2 1 1 2 2 2 2 2 2
2 3 3 4 4 2 1 1 2 1 1 2 2 2 3 3 3 3 3 3 3 3 3 3 3 3 3 2 3 3 1 1 2 2 2 1 1 1 2 2 2 1 1 1
3 1 2 1 2 2 1 2 3 2 2 2 2 3 3 3 2 2 2 2 2 2 3 3 3 3 2 2 2 1 1 1 2 1 1 1 1 1 1 1 1 2 2 2
3 1 1 2 2 2 3 3 3 3 3 3 3 3 2 3 2 2 2 2 2 2 2 2 2 2 2 2 2 1 2 2 2 1 1 1 1 1 1 0 0 1 2 3
2 2 3 4 3 2 2 2 2 3 3 2 3 3 3 3 2 2 2 2 2 2 3 3 3 2 2 2 2 2 2 2 2 2 1 1 1 1 0 1 2 3 2 2
Wind_Direction
174 177 206 205 201 199 184 186 207 221 221 192 220 240 247 242 222 219 220 216 215 217 219 199 182 170 159 166 166 167 165 169 160 159 160 162 174 176 171 171 167 162 157 154
170 223 217 204 204 219 217 215 218 253 224 205 232 251 248 234 220 214 212 212 211 207 203 193 178 170 171 174 177 175 172 173 173 173 174 173 169 171 175 166 160 163 162 163
203 221 190 195 204 212 223 211 209 210 234 245 250 276 253 249 230 221 213 207 202 196 195 193 184 183 176 181 183 181 179 175 173 165 148 132 110 93 107 145 171 176 168 168
225 236 190 195 207 199 227 212 203 204 179 238 185 259 261 233 236 225 218 210 206 201 194 190 187 185 186 190 184 177 177 174 170 163 160 159 164 172 187 180 176 171 168 167
218 204 192 203 206 191 217 200 198 203 192 239 210 225 274 221 226 229 220 213 210 204 194 192 191 187 184 181 176 173 170 171 170 167 167 165 165 170 163 150 151 156 162 166
231 214 198 202 198 186 164 106 67 56 123 235 213 198 264 223 214 214 216 213 207 202 197 194 188 174 172 167 167 165 164 173 171 167 168 169 168 164 157 160 166 169 162 160
235 228 209 165 160 177 156 132 133 175 213 239 194 203 247 238 220 204 207 209 204 193 184 181 177 175 174 170 171 168 162 171 174 168 172 175 174 171 172 173 175 171 168 176
185 224 208 187 178 177 185 170 172 185 203 243 196 222 249 253 231 207 203 195 183 183 181 181 182 181 180 177 172 167 165 167 174 173 175 174 171 171 175 177 173 177 182 186
186 235 221 202 179 155 167 194 179 137 163 200 237 264 291 292 330 179 170 165 175 181 178 176 177 176 176 174 175 170 165 164 171 176 170 168 170 169 172 173 168 171 171 168
182 226 244 189 116 152 157 155 142 160 176 218 245 240 233 226 236 223 180 175 177 169 163 163 164 166 168 166 162 158 161 165 167 173 174 166 168 169 167 159 162 163 164 157
39 182 256 157 183 180 156 171 164 166 187 180 219 255 226 209 211 198 200 186 169 163 158 154 147 140 135 131 134 138 145 146 146 152 155 152 155 152 143 147 156 158 152 150
258 148 207 247 278 202 180 176 162 174 209 194 193 264 305 233 198 164 165 155 145 140 139 138 134 125 121 124 127 129 132 137 145 145 142 146 140 136 137 144 149 147 144 146
239 146 125 0 318 171 196 191 181 164 157 181 186 255 334 34 57 72 117 124 115 110 105 108 117 123 128 129 127 126 129 139 138 133 134 136 136 139 143 146 140 135 132 131
81 137 188 196 209 176 208 220 195 173 199 209 218 241 299 354 32 29 74 129 127 120 120 115 113 122 125 123 123 125 124 129 131 125 126 134 146 144 141 135 131 129 129 130
80 186 250 271 274 196 219 223 212 208 206 205 227 234 258 251 218 185 136 121 108 106 116 125 128 128 121 108 108 118 117 111 122 124 125 135 132 127 126 127 128 124 122 121
46 217 311 297 284 250 270 253 228 227 221 225 236 256 275 312 64 56 78 121 137 157 157 143 125 124 128 130 131 124 122 119 117 126 132 131 127 125 127 132 128 122 115 112
206 155 153 278 301 358 285 255 226 227 224 212 229 240 218 24 84 128 105 101 115 118 127 134 139 139 142 146 141 145 143 124 117 124 127 131 132 130 132 129 124 125 123 117
187 165 154 269 31 228 247 305 237 223 238 231 227 210 190 192 189 39 79 125 114 102 101 102 101 87 89 96 103 109 108 117 124 126 131 134 134 134 133 133 139 136 132 137
187 166 149 158 220 274 310 340 330 226 280 329 285 257 252 104 59 20 15 68 118 106 99 108 105 102 95 94 104 106 102 107 114 124 135 143 149 148 146 151 158 155 142 142
134 129 133 147 186 242 287 311 310 142 273 336 349 268 207 99 167 245 352 42 72 74 75 77 70 71 74 71 102 108 109 107 118 139 146 139 147 154 161 169 167 155 150 162
135 141 181 180 216 267 294 312 4 136 263 318 315 267 187 188 189 172 57 40 58 59 63 72 73 68 61 84 107 110 108 123 145 124 114 115 128 156 167 163 161 151 138 116
180 175 189 168 201 257 317 29 94 256 314 345 1 16 85 87 86 92 79 64 55 50 51 59 68 52 39 78 111 112 115 111 88 97 105 112 112 154 149 149 154 149 142 132
203 198 179 180 206 266 326 329 308 328 357 355 10 26 86 86 69 65 67 59 55 56 49 51 69 56 34 48 106 119 103 90 101 102 113 124 119 124 150 153 155 151 157 171
304 340 139 185 268 294 355 6 6 22 36 17 35 53 67 76 77 67 69 57 53 51 52 56 64 63 37 38 68 89 80 84 100 106 112 121 128 109 100 143 171 178 193 201
265 273 165 233 273 328 355 12 19 28 43 48 43 44 60 80 62 53 61 50 49 43 39 55 65 58 38 39 45 58 76 98 99 90 87 85 88 97 49 13 243 233 222 219
269 216 198 228 235 216 276 342 21 36 22 31 48 38 37 62 68 52 48 39 47 49 46 51 51 51 31 35 49 55 79 105 112 91 66 61 65 61 56 27 2 358 340 318